Regional Weather Roundup
Issued by NWS Northern Indiana

Home | Current Version | Previous Version | Graphics & Text | Print | Product List | Glossary On
Versions: 1 2 3 4 5 6 7 8 9 10 11 12 13 14 15 16 17 18 19 20 21 22 23 24 25 26 27 28 29 30 31 32 33 34 35 36 37 38 39 40 41 42 43 44 45 46 47 48 49 50
000
ASUS43 KIWX 240100
RWRIWX

KIWX WEATHER ROUNDUP
NATIONAL WEATHER SERVICE NORTHERN INDIANA
900 PM EDT WED MAY 23 2018

NOTE: "FAIR" INDICATES FEW OR NO CLOUDS BELOW 12,000 FEET WITH NO
SIGNIFICANT WEATHER AND/OR OBSTRUCTIONS TO VISIBILITY.

* THESE STATIONS ARE NOT UNDER NWS QUALITY CONTROL. THEY ALSO MAY NOT
  REPORT WEATHER SUCH AS PRECIPITATION OR FOG.

INZ001>027-240200-
NORTHERN INDIANA

CITY           SKY/WX    TMP DP  RH WIND       PRES   REMARKS
GARY*          PTCLDY    63  57  82 VRB5      30.17R
SOUTH BEND     FAIR      69  58  67 N5        30.17R
ELKHART*       FAIR      73  57  56 CALM      30.16R
GOSHEN         FAIR      73  51  46 CALM      30.16R
FORT WAYNE     MOCLDY    71  54  54 NE5       30.16R

$$
INZ028>050-240200-
CENTRAL INDIANA

CITY           SKY/WX    TMP DP  RH WIND       PRES   REMARKS
LAFAYETTE      FAIR      73  52  47 NE3       30.13R
KOKOMO*        FAIR      71  54  54 NE7       30.15S
MUNCIE*        FAIR      72  51  47 E6        30.15R
INDIANAPOLIS   MOCLDY    77  47  34 NE9       30.13R

$$
MIZ043>046-050>051-056>058-064>065-071>073-077>080-240200-
SOUTHWEST LOWER MICHIGAN

CITY           SKY/WX    TMP DP  RH WIND       PRES   REMARKS
BATTLE CREEK   FAIR      72  49  44 NE5       30.18R
BENTON HARBOR  FAIR      65  53  65 CALM      30.17R
COLDWATER*     FAIR      69  50  51 CALM      30.17S
HILLSDALE*     FAIR      66  54  63 CALM      30.17S
HOLLAND        FAIR      65  57  75 W3        30.17F
GRAND RAPIDS   MOCLDY    71  54  54 W5        30.17R
KALAMAZOO      FAIR      72  53  51 N5        30.17R
STURGIS*       FAIR      71  52  51 E5        30.16S
THREE RIVERS*  FAIR      70  53  54 CALM      30.17R

$$
OHZ001>008-015>018-024>025-240200-
NORTHWEST OHIO

CITY           SKY/WX    TMP DP  RH WIND       PRES   REMARKS
DEFIANCE       FAIR      72  55  55 E3        30.16R
FINDLAY        FAIR      69  51  52 SE3       30.17R
TOLEDO EXPRESS FAIR      69  55  60 S5        30.16R
TOLEDO METCALF FAIR      72  50  45 SE3       30.17R
LIMA           FAIR      66  54  65 E7        30.17R

$$
AND FOR LAKE MICHIGAN COASTAL AND OPEN LAKE BUOY OBSERVATIONS

STATION/POSITION TEMP    WIND        PRES    VSBY  WAVE
                 AIR SEA DIR/SP/G                  HT/PER
                 (F)     (DEG/KT/KT) (MB)    (MI)  (FT/S)
CALUMET HARBOR    57      70/  3/  5 1020.7F
MICHIGAN CITY     59      40/ 10/ 10   N/A
BURNS HARBOR      59      80/  9/ 10 1021.7S
SAINT JOSEPH      66      40/  5/ 10 1021.3
SOUTH LAKE BUOY   49 39   90/  6/  6 1022.2          0
4 MI NW BRIDGMAN  59 55   50/  6/  8 1021.7R         1
MICHIGAN CITY     57 57   70/  4/  6   N/A           0

$$
&&




USA.gov is the U.S. government's official web portal to all federal, state and local government web resources and services.